{"data":{"norad_id":55830,"intl_designator":"2023-029AL","name":"ONEWEB-0671","alt_names":[],"object_type":"PAYLOAD","status":"ACTIVE","operator":null,"country":"UK","launch_date":"2023-03-09","launch_site_code":"AFETR","launch_vehicle":null,"mission":null,"orbit_class":"UNKNOWN","rcs_meters":null,"size_class":null,"mass_kg":null,"dimensions":null,"purposes":["comms"],"wikipedia_slug":null,"has_3d_model":false,"image_url":null,"decayed_at":null,"tle_current":{"epoch":"2026-05-25T04:00:13.808736Z","epoch_age_seconds":67426,"freshness":"FRESH","line1":"1 55830U 23029AL  26145.16682649  .00000049  00000+0  91152-4 0  9991","line2":"2 55830  87.9149 309.5654 0001795  87.8933 272.2405 13.19726743155863","mean_motion":13.19726743,"eccentricity":0.0001795,"inclination_deg":87.9149,"raan_deg":309.5654,"arg_perigee_deg":87.8933,"mean_anomaly_deg":272.2405,"bstar":9.1152e-5,"rev_number":15586,"period_min":109.11349699004,"perigee_km":1184.4061718768,"apogee_km":1187.121612297,"semimajor_km":7563.9008920869,"source":"CELESTRAK","updated_at":"2026-05-25T13:38:22.698017Z"}}}